CZ-6A DEB, 56260

Orbit data source: Space-Track

CZ-6A DEB, 56260 is space debris in SSO originally from a launch on Fri, 11 Nov 2022 UTC launched from the Taiyaun Space Center, China (TSC). Debris objects in space refer to the collection of defunct objects orbiting the Earth. Examples of debris include non-operational satellites, rocket bodies, and fragments generated from explosions, collisions, or faulty payload assembly.

Loading next visibility...
Identifier
56260, 2022-151ACC
Orbit
SSO
Country
Flag of CNCN / PRC
Related business
Manufacturer
SAST
Mission
Spacecraft
Bus & Motor
Unknown
Mass
Unknown
Launch date (UTC)
2022-11-11 (3 years ago)
Launch vehicle
Unknown
Launch site
Taiyaun Space Center, China (TSC)
Object type
Payload
Rocket body
Debris
Shape & HBR
Unknown shape, 0.1 m
Radar Cross Section
Small (<0.1 m²)

Expand to show TLE details & history
Last TLE update: 1 day ago

TLE from 1 day ago
0 CZ-6A DEB
1 56260U 22151ACC 25349.27564941  .00000916  00000-0  40851-3 0  9998
2 56260  98.7586   7.4022 0044123 158.7103 201.5924 14.24684009142387
Epoch: 2025-12-15T06:36Z
TLE epoch observation values (Epoch: 2025-12-15T06:36:56.109Z)
Latitude
-0.00002°
Longitude
-176.00813°
Altitude
841.988 km
Speed
7.417 km/s
True Right ascension
00h 29m 36s
True Declination
0° 00' 00"
Sunlit
Object was in daylight at epoch
Visualization orbit readout
Latitude
Unknown
Longitude
Unknown
Altitude
Unknown
Speed
Unknown
Apparent Right ascension
Unknown
Apparent Declination
Unknown
Sunlit
N/A
Visualization observer readout
Local Sidereal Time
08:20:51
Azimuth
Unknown
Elevation
Unknown
Doppler factor
Unknown
Orbital elements
Apogee altitude
838.412 km
Perigee altitude
775.008 km
Semi-major axis
7,184.847 km
Eccentricity
0.00441
Inclination
98.7586°
RAAN
7.4022°
Arg. of periapsis
158.7103°
True anomaly
201.40728°
Mean anomaly
201.5924°
Eccentric anomaly
201.49975°
Mean motion
3.56383 °/min
Orbital period
101.01 mins
BSTAR
0.00040851
Loading maneuver chart data...
Computing Atmospheric mass density...
Loading historical data...
Loading historical data...
Loading historical data...
Loading historical data...
Loading historical data...
Loading historical data...
Loading historical data...

Documentation

Showing up to 5 results
|